COSMOS 1275 DEB, 13017

Orbit data source: Space-Track

COSMOS 1275 DEB, 13017 is space debris in LEO originally from a launch on Thu, 04 Jun 1981 UTC launched from the Plesetsk Missile And Space Complex (PKMTR). Debris objects in space refer to the collection of defunct objects orbiting the Earth. Examples of debris include non-operational satellites, rocket bodies, and fragments generated from explosions, collisions, or faulty payload assembly.

Loading next visibility...
Identifier
13017, 1981-053EP
Orbit
LEO
Country
Flag of CISCIS
Related business
Manufacturer
Unknown
Mission
Spacecraft
Bus & Motor
Unknown
Mass
Unknown
Launch date (UTC)
1981-06-04 (44 years ago)
Launch vehicle
Unknown
Launch site
Plesetsk Missile And Space Complex (PKMTR)
Object type
Payload
Rocket body
Debris
Shape & HBR
Unknown shape, 0.1 m
Radar Cross Section
Small (<0.1 m²)

Expand to show TLE details & history
Last TLE update: 10 hours ago

TLE from 10 hours ago
0 COSMOS 1275 DEB
1 13017U 81053EP  25308.71779486  .00001359  00000-0  90387-3 0  9994
2 13017  82.9268 108.3546 0031411 150.8157 234.9553 14.00350940225526
Epoch: 2025-11-04T17:13Z
TLE epoch observation values (Epoch: 2025-11-04T17:13:37.475Z)
Latitude
25.29881°
Longitude
169.09234°
Altitude
908.832 km
Speed
7.393 km/s
True Right ascension
07h 26m 47s
True Declination
25° 10' 08"
Sunlit
Object was in daylight at epoch
Visualization orbit readout
Latitude
Unknown
Longitude
Unknown
Altitude
Unknown
Speed
Unknown
Apparent Right ascension
Unknown
Apparent Declination
Unknown
Sunlit
N/A
Visualization observer readout
Local Sidereal Time
22:54:09
Azimuth
Unknown
Elevation
Unknown
Doppler factor
Unknown
Orbital elements
Apogee altitude
912.523 km
Perigee altitude
866.866 km
Semi-major axis
7,267.832 km
Eccentricity
0.00314
Inclination
82.9268°
RAAN
108.3546°
Arg. of periapsis
150.8157°
True anomaly
234.66128°
Mean anomaly
234.9553°
Eccentric anomaly
234.80822°
Mean motion
3.50297 °/min
Orbital period
102.77 mins
BSTAR
0.00090387
Loading maneuver chart data...
Computing Atmospheric mass density...
Loading historical data...
Loading historical data...
Loading historical data...
Loading historical data...
Loading historical data...
Loading historical data...
Loading historical data...

Documentation

Showing up to 5 results
|